Location: Norton
(51.3000°N, 0.8167°E)
Time: 12:14:29
(UTC+00:00)

Cosmos 2333 - Pass Details

Date: 03 March 2021
Orbit: 829 x 866 km, 70.9° (Epoch: 17 April)

Event Time Altitude Azimuth Distance (km) Brightness Sun altitude
Rises 20:14:20 0° 212° (SSW) 3,379 7.5 -24.4°
Reaches altitude 10° 20:16:46 10° 213° (SSW) 2,453 6.7 -24.7°
Maximum altitude 20:22:25 80° 301° (WNW) 866 4.2 -25.5°
Drops below altitude 10° 20:28:10 10° 29° (NNE) 2,495 6.6 -26.3°
Sets 20:30:39 0° 31° (NNE) 3,440 7.3 -26.7°
